This is the latest recevied weather packets stored in our database for station/object K6POO-1. If no packets are shown the sender has not sent any weather packets the latest 10 day(s).
| Time | Temp. | Humidity | Pressure | Rain* | Wind** | Luminosity | Snow |
|---|---|---|---|---|---|---|---|
| 1777779949 | 12.22° C | 83% | 1012.6 hPa | 0 mm | - | 0 W/m² | - |
| 1777779647 | 12.22° C | 83% | 1012.6 hPa | 0 mm | - | 0 W/m² | - |
| 1777779343 | 12.22° C | 84% | 1012.5 hPa | 0 mm | - | 0 W/m² | - |
| 1777779041 | 12.22° C | 84% | 1012.3 hPa | 0 mm | - | 0 W/m² | - |
| 1777778740 | 12.22° C | 83% | 1012.3 hPa | 0 mm | - | 0 W/m² | - |
| 1777778437 | 12.22° C | 83% | 1012.3 hPa | 0 mm | - | 0 W/m² | - |
| 1777778134 | 12.22° C | 83% | 1012.1 hPa | 0 mm | - | 0 W/m² | - |
| 1777777831 | 12.22° C | 84% | 1011.9 hPa | 0 mm | - | 1 W/m² | - |
| 1777777527 | 12.22° C | 84% | 1012 hPa | 0 mm | - | 1 W/m² | - |
| 1777777225 | 12.22° C | 84% | 1011.8 hPa | 0 mm | - | 2 W/m² | - |
| 1777776921 | 12.22° C | 83% | 1011.8 hPa | 0 mm | - | 3 W/m² | - |
| 1777776619 | 12.22° C | 83% | 1011.9 hPa | 0 mm | - | 5 W/m² | - |
| 1777776315 | 12.78° C | 83% | 1011.7 hPa | 0 mm | - | 8 W/m² | - |
| 1777776012 | 12.22° C | 82% | 1011.7 hPa | 0 mm | - | 12 W/m² | - |
| 1777775709 | 12.78° C | 83% | 1011.6 hPa | 0 mm | - | 18 W/m² | - |
| 1777775406 | 12.78° C | 83% | 1011.8 hPa | 0 mm | - | 23 W/m² | - |
| 1777775102 | 12.78° C | 82% | 1011.7 hPa | 0 mm | - | 28 W/m² | - |
| 1777774797 | 12.78° C | 82% | 1011.8 hPa | 0 mm | - | 35 W/m² | - |
| 1777774494 | 12.78° C | 82% | 1011.4 hPa | 0 mm | - | 44 W/m² | - |
| 1777774191 | 12.78° C | 82% | 1012 hPa | 0 mm | - | 44 W/m² | - |
| 1777773889 | 12.78° C | 81% | 1011.8 hPa | 0 mm | - | 44 W/m² | - |
| 1777773585 | 12.78° C | 81% | 1011.7 hPa | 0 mm | - | 53 W/m² | - |
| 1777773282 | 12.78° C | 80% | 1011.9 hPa | 0 mm | - | 61 W/m² | - |
| 1777772978 | 12.78° C | 80% | 1012 hPa | 0 mm | - | 75 W/m² | - |
| 1777772675 | 13.33° C | 79% | 1012 hPa | 0 mm | - | 84 W/m² | - |
* Rain latest hour (hover to see other rain measurements)
** Current wind speed in m/s (hover to see current wind gust speed)